LA8QT Lodingen NO current weather conditions

sailwx.info

Wind from 066 at 6 knots

Air temperature 7.8° C
Dewpoint 3.6° C

Last reported at 2015-May-29 03:42 UTC.
Time now 2015-May-29 04:13 UTC

Location: N 68°28' E 016°04'.
View on Google Maps.

See reports from other nearby stations

  
Tides and Currents Weather Stations Pressure Air Temp Water Temp Dewpoint Dewpoint Depression Visibility Wind Speed Wind Dir Waves Ship Positions
date/time (UTC)wind fromknots sea level pressurealtimeterstation pressurevisibilityair tempwater tempwave heightnotes
2015-May-29 03:42 066 6 7.8
2015-May-29 03:27 091 7 7.2
2015-May-29 03:12 116 5 7.2
2015-May-29 02:57 151 4 7.2
2015-May-29 02:42 157 3 7.2
2015-May-29 02:27 164 2 6.7
2015-May-29 02:12 164 2 6.7
2015-May-29 01:57 165 1 6.7
2015-May-29 01:42 165 7.2
2015-May-29 01:27 164 1 7.2
2015-May-29 01:12 164 1 6.7
2015-May-29 00:57 165 6.7
2015-May-29 00:42 165 0 6.7
2015-May-29 00:27 164 0 6.7
2015-May-29 00:12 164 6.7
2015-May-28 23:57 164 6.7
2015-May-28 23:42 164 7.2
2015-May-28 23:27 164 7.2
2015-May-28 23:12 164 7.2
2015-May-28 22:57 164 7.2
2015-May-28 22:42 165 7.2
2015-May-28 22:27 165 7.2
2015-May-28 22:12 164 6.7
2015-May-28 21:57 164 6.7
2015-May-28 21:42 164 7.2
2015-May-28 21:27 164 7.2
2015-May-28 21:12 164 7.2
2015-May-28 20:57 164 7.2
2015-May-28 20:42 164 7.2
2015-May-28 20:27 164 2 7.2
2015-May-28 20:12 164 2 7.8
2015-May-28 19:57 165 7.8
2015-May-28 19:42 164 7.8
2015-May-28 19:27 164 7.8
2015-May-28 19:12 164 7.8
2015-May-28 18:57 165 7.8
2015-May-28 18:42 164 7.8
2015-May-28 18:27 164 7.8
2015-May-28 18:12 164 0 7.8
2015-May-28 17:57 164 7.8
2015-May-28 17:42 164 4 7.8
2015-May-28 17:27 164 3 7.8
2015-May-28 17:12 164 2 8.3
2015-May-28 16:57 164 1 8.3
2015-May-28 16:42 164 1 8.3
2015-May-28 16:27 164 1 8.3
2015-May-28 16:12 164 8.3
2015-May-28 15:57 164 3 8.3
2015-May-28 15:42 164 5 7.8
2015-May-28 15:27 178 1 8.3
2015-May-28 15:12 179 0 8.9
2015-May-28 14:57 179 8.3
2015-May-28 14:42 179 8.3
2015-May-28 14:27 179 1 8.3
2015-May-28 14:12 179 8.3
2015-May-28 13:57 179 8.3
2015-May-28 13:41 179 8.3
2015-May-28 13:26 179 8.3
2015-May-28 13:11 179 8.3
2015-May-28 12:56 179 2 8.3
2015-May-28 12:41 179 0 8.3
2015-May-28 12:26 178 8.3
2015-May-28 12:11 178 8.3
2015-May-28 11:56 178 1 8.3
2015-May-28 11:41 178 3 8.3
2015-May-28 11:26 178 1 8.3
2015-May-28 11:11 180 0 8.3
2015-May-28 10:56 180 5 8.3
2015-May-28 10:41 219 2 8.3
2015-May-28 10:26 218 2 8.3
2015-May-28 10:11 219 2 8.9
2015-May-28 09:56 219 1 8.9
2015-May-28 09:41 219 0 8.9
2015-May-28 09:26 219 4 8.9
2015-May-28 09:11 219 8.9
2015-May-28 08:56 219 1 8.9
2015-May-28 08:41 219 5 8.3
2015-May-28 08:26 230 2 8.9
2015-May-28 08:11 228 1 8.9
2015-May-28 07:56 209 2 8.9
2015-May-28 07:41 209 1 8.9
2015-May-28 07:26 209 2 8.3
2015-May-28 07:11 209 2 8.3
2015-May-28 06:56 209 3 8.3
2015-May-28 06:41 197 4 8.3
2015-May-28 06:26 197 2 8.3
2015-May-28 06:11 197 8.3
2015-May-28 05:56 197 8.9
2015-May-28 05:41 197 8.9
2015-May-28 05:26 197 0 8.3
2015-May-28 05:11 197 0 8.3
2015-May-28 04:56 197 8.3
2015-May-28 04:41 197 8.3
2015-May-28 04:26 198 7.8
2015-May-28 04:11 197 8.3
2015-May-28 03:56 197 8.3
2015-May-28 03:41 197 8.3
2015-May-28 03:26 197 8.3
2015-May-28 03:11 197 7.8
2015-May-28 02:56 197 7.8
2015-May-28 02:41 197 7.8
2015-May-28 02:26 197 7.8
2015-May-28 02:11 197 7.8
2015-May-28 01:56 197 7.8
2015-May-28 01:41 197 7.8
2015-May-28 01:26 197 7.8
2015-May-28 01:11 197 7.8
2015-May-28 00:56 198 7.8
2015-May-28 00:41 197 7.8
2015-May-28 00:26 197 7.8
2015-May-28 00:11 197 7.8
2015-May-27 23:56 197 7.8
2015-May-27 23:41 197 7.8
2015-May-27 23:26 197 7.8
2015-May-27 23:10 197 7.8
2015-May-27 22:55 198 7.8
2015-May-27 22:40 197 7.8
2015-May-27 22:25 197 7.8
2015-May-27 22:10 197 7.8
2015-May-27 21:55 197 7.8
2015-May-27 21:40 197 7.8
2015-May-27 21:25 197 8.3
2015-May-27 21:10 197 8.3
2015-May-27 20:55 197 8.3
2015-May-27 20:40 197 8.3
2015-May-27 20:25 197 8.3
2015-May-27 20:10 197 8.3
2015-May-27 19:55 197 8.3
2015-May-27 19:40 197 8.3
2015-May-27 19:25 197 8.3
2015-May-27 19:10 197 8.3
2015-May-27 18:55 198 0 8.3
2015-May-27 18:40 197 2 8.3
2015-May-27 18:25 197 0 8.3
2015-May-27 18:10 197 8.9
2015-May-27 17:55 197 2 8.3
2015-May-27 17:40 197 5 8.3
2015-May-27 17:25 197 8.9
2015-May-27 17:10 197 8.9
2015-May-27 16:55 197 9.4
2015-May-27 16:40 197 9.4
2015-May-27 16:25 197 2 9.4
2015-May-27 16:10 197 1 10.0
2015-May-27 15:55 197 1 10.0
2015-May-27 15:40 195 3 10.0
2015-May-27 15:25 112 2 10.6
2015-May-27 15:10 084 0 10.6
2015-May-27 14:55 084 11.1
2015-May-27 14:40 084 3 11.1
2015-May-27 14:25 085 4 12.8
2015-May-27 14:10 081 2 12.2
2015-May-27 13:55 081 3 12.8
2015-May-27 13:40 080 2 13.3
2015-May-27 13:25 080 5 12.8
2015-May-27 13:10 081 6 13.3
2015-May-27 12:55 082 3 13.9
2015-May-27 12:40 082 5 13.9
2015-May-27 12:25 090 5 13.9
2015-May-27 12:10 090 6 13.9
2015-May-27 11:55 095 6 13.9
2015-May-27 11:40 148 13.3
2015-May-27 11:25 153 0 12.8
2015-May-27 11:10 153 0 12.8
2015-May-27 10:55 153 2 12.2
2015-May-27 10:40 153 3 12.8
2015-May-27 10:25 161 0 12.8
2015-May-27 10:10 161 12.2
2015-May-27 09:55 161 11.7
2015-May-27 09:40 161 11.1
2015-May-27 09:25 161 11.1
2015-May-27 09:10 161 0 10.6
2015-May-27 08:55 161 1 10.0
2015-May-27 08:40 153 3 10.0
2015-May-27 08:25 152 2 10.6
2015-May-27 08:10 147 2 10.6
2015-May-27 07:55 147 3 10.6
2015-May-27 07:40 147 2 11.1
2015-May-27 07:25 147 10.6
2015-May-27 07:10 147 10.6
2015-May-27 06:55 147 10.6
2015-May-27 06:40 147 10.6
2015-May-27 06:25 147 2 10.0
2015-May-27 06:10 147 3 8.9
2015-May-27 05:55 147 4 8.9
2015-May-27 05:40 147 4 8.9
2015-May-27 05:25 147 3 9.4
2015-May-27 05:10 147 4 8.9
2015-May-27 04:57 147 4 8.3
2015-May-27 04:40 147 5 8.9
2015-May-27 04:25 160 2 8.9
2015-May-27 04:10 182 8.3